Location: Lugano
(46.0000°N, 8.9670°E)
Time: 23:25:33
(UTC+01:00)

ARIANE 6 FM1 Upper Stage - Visible Passes

Search period start: 12 March 2026 00:00
Search period end: 22 March 2026 00:00
Orbit: 523 x 607 km, 62.0° (Epoch: 12 March)

Date Brightness Start Highest point End Pass type
(mag) Time Alt. Az. Time Alt. Az. Time Alt. Az.
12 Mar 5.2 03:45:55 15° ESE 03:45:55 15° ESE 03:48:08 10° E visible
12 Mar 2.5 05:21:57 23° SW 05:24:22 71° NW 05:28:23 10° NE visible
13 Mar 4.9 03:46:08 20° ESE 03:46:08 20° ESE 03:48:33 10° ENE visible
13 Mar 2.9 05:22:09 25° WSW 05:24:11 50° NW 05:28:07 10° NNE visible
14 Mar 4.6 03:46:13 26° E 03:46:13 26° E 03:48:41 10° ENE visible
14 Mar 3.3 05:22:14 24° W 05:24:03 37° NW 05:27:48 10° NNE visible
15 Mar 4.3 03:46:13 31° ENE 03:46:13 31° ENE 03:48:40 10° NE visible
15 Mar 3.8 05:22:13 21° WNW 05:23:55 28° NW 05:27:27 10° NNE visible
16 Mar 4.2 03:46:08 34° ENE 03:46:08 34° ENE 03:48:31 10° NE visible
16 Mar 4.1 05:22:07 17° WNW 05:23:50 22° NNW 05:27:03 10° NNE visible
17 Mar 4.2 03:45:59 34° NE 03:45:59 34° NE 03:48:19 10° NE visible
17 Mar 4.4 05:21:58 14° WNW 05:23:47 18° NNW 05:26:36 10° NNE visible
18 Mar 4.2 03:45:46 31° NNE 03:45:46 31° NNE 03:48:02 10° NE visible
18 Mar 4.7 05:21:45 11° WNW 05:23:45 15° NNW 05:26:06 10° N visible
19 Mar 4.3 03:45:30 28° NNE 03:45:30 28° NNE 03:47:42 10° NNE visible
19 Mar 4.9 05:21:56 10° NW 05:23:44 13° NNW 05:25:32 10° N visible
20 Mar 4.5 03:45:12 25° N 03:45:12 25° N 03:47:20 10° NNE visible
20 Mar 5.0 05:22:43 10° NNW 05:23:45 11° NNW 05:24:47 10° N visible
21 Mar 4.6 03:44:50 22° N 03:44:50 22° N 03:46:55 10° NNE visible
